Find Kuiper-00065

NORAD ID: 64525 Int'l Des: 2025-134 Owner: KUIP Country: US Constellation: kuiper operational
LEOCIRCULAR

リアルタイム位置

3D地球を読み込み中...

Kuiper-00065について

説明を読み込み中...

次回通過

Passes for default location (London). Set your location on the main map for personalized predictions.

高度履歴

Loading altitude history...

軌道要素

1 64525U 25134AB 26107.11423687 .00002093 00000-0 30355-3 0 9998
2 64525 51.9046 70.7795 0000841 78.9873 281.1184 14.79923039 45640
Epoch: Apr 17, 2026 • Age: 17 hours

現在のステータス

高度 629.5 km
速度 7.55 km/s
衛星直下点 14.28°N, 95.12°E
打ち上げ日 Jun 23, 2025
運用期間 0.8 years
タイプ internet

技術仕様

分類 Payload
質量 490.00 kg
乾燥質量 490.00 kg
総質量 490.00 kg
長さ 1.80 m
直径 0.70 m
スパン 5.00 m
形状 Box + 2 pan
製造者 KUIP
バスタイプ Kuiper
フェーズステータス In Orbit
所有者/国 KUIP/US

Most Searched